29P/Schwassmann-Wachmann 1 (1989)

Japanese version
Home page
Updated on May 5, 2012

---------------------------------------------------------------------

* Profile

* Orbital Elements

Epoch 1989 Nov. 10.0 TT = JDT 2447840.5
T 1989 Oct. 26.72553 TT                                 MPC
q   5.7717726            (2000.0)            P               Q
n   0.06637084     Peri.   49.87037     +0.99139205     -0.05373159
a   6.0415890      Node   312.84784     -0.01238501     +0.86933190
e   0.0446599      Incl.    9.37217     +0.13033961     +0.49129925
P  14.9
From 16492 observations 1902 Mar. 5-2012 May 3, mean residual 0".6.

* Finding Charts

* 1995 Jan. 3 - 1997 Dec. 18

* Magnitudes Graph

        m1 = 4.0 + 5 log d + 7.5 log r

---------------------------------------------------------------------

The orbital elements are published on M.P.E.C. 2012-J16.
The charts are made with StellaNavigator Ver.2.0 for Windows (AstroArts / ASCII).
The magnitudes graphs are made with Comet for Windows.

---------------------------------------------------------------------

Copyright(C) Seiichi Yoshida (comet@aerith.net). All rights reserved.